Weather reports worldwide

Advertisment
Tampico, Mexico (76548): temperature & dewpoint: 17.04.2018 08:00:00 - 23.04.2018 08:00:00 (CDT)Tampico, Mexico (76548): wind speed: 17.04.2018 08:00:00 - 23.04.2018 08:00:00 (CDT)Tampico, Mexico (76548): wind direction: 17.04.2018 08:00:00 - 23.04.2018 08:00:00 (CDT)Tampico, Mexico (76548): reduced air pressure: 17.04.2018 08:00:00 - 23.04.2018 08:00:00 (CDT)Tampico, Mexico (76548): visibility: 17.04.2018 08:00:00 - 23.04.2018 08:00:00 (CDT)
Date & Time tt [°C] td [°C] ff [km/h] ff [kn] dd ppp [hPa] vv [km]
23.04.2018 08:00:00 - - - - - - -
23.04.2018 07:00:00 24,2 22,2 7 4 NNE 1016,2 12
23.04.2018 06:00:00 - - - - - - -
23.04.2018 05:00:00 - - - - - - -
23.04.2018 04:00:00 25,0 22,8 7 4 NNE 1015,7 10
23.04.2018 03:00:00 - - - - - - -
23.04.2018 02:00:00 - - - - - - -
23.04.2018 01:00:00 25,4 22,6 7 4 ENE 1017,3 10
23.04.2018 00:00:00 - - - - - - -
22.04.2018 23:00:00 - - - - - - -
22.04.2018 22:00:00 25,2 22,7 7 4 E 1016,3 10
22.04.2018 21:00:00 - - - - - - -
22.04.2018 20:00:00 - - - - - - -
22.04.2018 19:00:00 27,2 22,5 11 6 E 1013,7 22
22.04.2018 18:00:00 - - - - - - -
22.04.2018 17:00:00 - - - - - - -
22.04.2018 16:00:00 30,8 22,8 14 8 E 1014,8 22
22.04.2018 15:00:00 - - - - - - -
22.04.2018 14:00:00 - - - - - - -
22.04.2018 13:00:00 30,0 20,7 14 8 E 1016,3 22
22.04.2018 12:00:00 - - - - - - -
22.04.2018 11:00:00 - - - - - - -
22.04.2018 10:00:00 26,8 22,3 11 6 NE 1016,0 20
22.04.2018 09:00:00 - - - - - - -
22.04.2018 08:00:00 - - - - - - -
22.04.2018 07:00:00 24,0 22,6 7 4 N 1013,9 10
22.04.2018 06:00:00 - - - - - - -
22.04.2018 05:00:00 - - - - - - -
22.04.2018 04:00:00 24,8 22,9 4 2 NNE 1013,7 10
22.04.2018 03:00:00 - - - - - - -
22.04.2018 02:00:00 - - - - - - -
22.04.2018 01:00:00 25,2 22,7 7 4 NE 1014,7 10
22.04.2018 00:00:00 - - - - - - -
21.04.2018 23:00:00 - - - - - - -
21.04.2018 22:00:00 25,4 22,9 14 8 E 1013,4 10
21.04.2018 21:00:00 - - - - - - -
21.04.2018 20:00:00 - - - - - - -
21.04.2018 19:00:00 27,2 22,5 18 10 E 1011,5 20
21.04.2018 18:00:00 - - - - - - -
21.04.2018 17:00:00 - - - - - - -
21.04.2018 16:00:00 32,2 22,3 22 12 SE 1011,0 22
21.04.2018 15:00:00 - - - - - - -
21.04.2018 14:00:00 - - - - - - -
21.04.2018 13:00:00 31,0 22,5 25 14 SE 1013,8 20
21.04.2018 12:00:00 - - - - - - -
21.04.2018 11:00:00 - - - - - - -
21.04.2018 10:00:00 26,4 21,6 7 4 SW 1015,4 20
21.04.2018 09:00:00 - - - - - - -
21.04.2018 08:00:00 - - - - - - -
21.04.2018 07:00:00 24,0 22,6 11 6 WSW 1014,8 10
21.04.2018 06:00:00 - - - - - - -
21.04.2018 05:00:00 - - - - - - -
21.04.2018 04:00:00 23,8 21,8 11 6 ESE 1014,9 10
21.04.2018 03:00:00 - - - - - - -
21.04.2018 02:00:00 - - - - - - -
21.04.2018 01:00:00 24,0 21,4 14 8 ESE 1017,0 10
21.04.2018 00:00:00 - - - - - - -
20.04.2018 23:00:00 - - - - - - -
20.04.2018 22:00:00 24,0 20,2 14 8 ESE 1017,3 10
20.04.2018 21:00:00 - - - - - - -
20.04.2018 20:00:00 - - - - - - -
20.04.2018 19:00:00 27,0 19,8 25 14 E 1016,4 22
20.04.2018 18:00:00 - - - - - - -
20.04.2018 17:00:00 - - - - - - -
20.04.2018 16:00:00 31,4 19,3 22 12 ESE 1017,8 22
20.04.2018 15:00:00 - - - - - - -
20.04.2018 14:00:00 - - - - - - -
20.04.2018 13:00:00 31,2 18,1 11 6 E 1020,8 22
20.04.2018 12:00:00 - - - - - - -
20.04.2018 11:00:00 - - - - - - -
20.04.2018 10:00:00 24,2 21,1 7 4 WSW 1021,1 22
20.04.2018 09:00:00 - - - - - - -
20.04.2018 08:00:00 - - - - - - -
20.04.2018 07:00:00 22,2 21,3 4 2 SSW 1019,9 10
20.04.2018 06:00:00 - - - - - - -
20.04.2018 05:00:00 - - - - - - -
20.04.2018 04:00:00 22,2 20,8 4 2 ESE 1020,6 10
20.04.2018 03:00:00 - - - - - - -
20.04.2018 02:00:00 - - - - - - -
20.04.2018 01:00:00 23,8 20,6 7 4 E 1021,9 10
20.04.2018 00:00:00 - - - - - - -
19.04.2018 23:00:00 - - - - - - -
19.04.2018 22:00:00 24,4 21,0 14 8 ENE 1021,2 10
19.04.2018 21:00:00 - - - - - - -
19.04.2018 20:00:00 - - - - - - -
19.04.2018 19:00:00 27,0 20,1 18 10 ENE 1019,8 22
19.04.2018 18:00:00 - - - - - - -
19.04.2018 17:00:00 - - - - - - -
19.04.2018 16:00:00 29,6 20,2 18 10 ENE 1020,7 22
19.04.2018 15:00:00 - - - - - - -
19.04.2018 14:00:00 - - - - - - -
19.04.2018 13:00:00 29,0 19,5 18 10 ENE 1022,5 22
19.04.2018 12:00:00 - - - - - - -
19.04.2018 11:00:00 - - - - - - -
19.04.2018 10:00:00 25,6 20,1 14 8 NE 1021,4 22
19.04.2018 09:00:00 - - - - - - -
19.04.2018 08:00:00 - - - - - - -
19.04.2018 07:00:00 22,4 21,3 7 4 N 1019,0 10
19.04.2018 06:00:00 - - - - - - -
19.04.2018 05:00:00 - - - - - - -
19.04.2018 04:00:00 23,6 21,6 7 4 N 1018,2 10
19.04.2018 03:00:00 - - - - - - -
19.04.2018 02:00:00 - - - - - - -
19.04.2018 01:00:00 24,2 22,0 11 6 E 1017,8 10
19.04.2018 00:00:00 - - - - - - -
18.04.2018 23:00:00 - - - - - - -
18.04.2018 22:00:00 24,8 22,0 14 8 E 1015,8 10
18.04.2018 21:00:00 - - - - - - -
18.04.2018 20:00:00 - - - - - - -
18.04.2018 19:00:00 27,2 21,0 22 12 E 1013,0 18
18.04.2018 18:00:00 - - - - - - -
18.04.2018 17:00:00 - - - - - - -
18.04.2018 16:00:00 31,6 20,6 22 12 ESE 1012,5 22
18.04.2018 15:00:00 - - - - - - -
18.04.2018 14:00:00 - - - - - - -
18.04.2018 13:00:00 30,8 19,0 18 10 ESE 1014,1 22
18.04.2018 12:00:00 - - - - - - -
18.04.2018 11:00:00 - - - - - - -
18.04.2018 10:00:00 24,8 19,9 4 2 SW 1015,5 22
18.04.2018 09:00:00 - - - - - - -
18.04.2018 08:00:00 - - - - - - -
18.04.2018 07:00:00 22,4 20,1 7 4 WSW 1014,4 10
18.04.2018 06:00:00 - - - - - - -
18.04.2018 05:00:00 - - - - - - -
18.04.2018 04:00:00 23,2 19,4 14 8 SSE 1013,9 10
18.04.2018 03:00:00 - - - - - - -
18.04.2018 02:00:00 - - - - - - -
18.04.2018 01:00:00 23,2 18,8 14 8 ESE 1015,5 10
18.04.2018 00:00:00 - - - - - - -
17.04.2018 23:00:00 - - - - - - -
17.04.2018 22:00:00 23,2 18,8 18 10 ESE 1014,6 10
17.04.2018 21:00:00 - - - - - - -
17.04.2018 20:00:00 - - - - - - -
17.04.2018 19:00:00 27,0 18,1 25 14 ESE 1013,5 22
17.04.2018 18:00:00 - - - - - - -
17.04.2018 17:00:00 - - - - - - -
17.04.2018 16:00:00 31,2 18,8 25 14 ESE 1014,8 24
17.04.2018 15:00:00 - - - - - - -
17.04.2018 14:00:00 - - - - - - -
17.04.2018 13:00:00 30,4 17,1 18 10 SE 1018,1 24
17.04.2018 12:00:00 - - - - - - -
17.04.2018 11:00:00 - - - - - - -
17.04.2018 10:00:00 23,6 17,2 7 4 SSW 1020,2 22
17.04.2018 09:00:00 - - - - - - -
17.04.2018 08:00:00 - - - - - - -

tt = temperature
td = dewpoint
ff = wind speed
dd = wind direction
ppp = reduced air pressure
vv = visibility

Next stations